Location: Croisilles
(50.1998°N, 2.8793°E)
Time: 20:00:27
(UTC+00:00)

Cosmos 2026 Rocket - Pass Details

Date: 21 January 2021
Orbit: 940 x 1000 km, 82.9° (Epoch: 02 March)

Event Time Altitude Azimuth Distance (km) Brightness Sun altitude
Rises 18:11:26 0° 163° (SSE) 3,605 6.9 -16.8°
Reaches altitude 10° 18:14:01 10° 156° (SSE) 2,671 6.2 -17.2°
Maximum altitude 18:19:39 41° 88° (E) 1,372 4.3 -18.1°
Drops below altitude 10° 18:25:24 10° 21° (NNE) 2,724 6.1 -19.0°
Sets 18:28:04 0° 15° (NNE) 3,685 6.8 -19.5°
